This is the latest recevied weather packets stored in our database for station/object DH0DM-13. If no packets are shown the sender has not sent any weather packets the latest 10 day(s).
| Time | Temp. | Humidity | Pressure | Rain* | Wind** | Luminosity | Snow |
|---|---|---|---|---|---|---|---|
| 1777826977 | 25° C | 28% | 985.1 hPa | 0 mm | 0.89 m/s, 137° | - | - |
| 1777826376 | 25.56° C | 27% | 985 hPa | 0 mm | 1.79 m/s, 204° | - | - |
| 1777825775 | 26.67° C | 25% | 985.1 hPa | 0 mm | 2.68 m/s, 207° | - | - |
| 1777825174 | 26.67° C | 25% | 985.1 hPa | 0 mm | 0.45 m/s, 214° | - | - |
| 1777824573 | 27.22° C | 24% | 985.1 hPa | 0 mm | 0.89 m/s, 105° | - | - |
| 1777823972 | 26.67° C | 23% | 985.3 hPa | 0 mm | 6.26 m/s, 111° | - | - |
| 1777823371 | 27.22° C | 23% | 985.2 hPa | 0 mm | 6.26 m/s, 237° | - | - |
| 1777822771 | 27.78° C | 23% | 985.3 hPa | 0 mm | 2.68 m/s, 188° | - | - |
| 1777822170 | 27.22° C | 23% | 985.5 hPa | 0 mm | 2.24 m/s, 194° | - | - |
| 1777821569 | 27.22° C | 20% | 985.7 hPa | 0 mm | 0.89 m/s, 126° | - | - |
| 1777820968 | 27.78° C | 21% | 985.5 hPa | 0 mm | 2.68 m/s, 214° | - | - |
| 1777820367 | 27.78° C | 24% | 985.7 hPa | 0 mm | 2.68 m/s, 184° | - | - |
| 1777819765 | 27.78° C | 21% | 985.7 hPa | 0 mm | 6.71 m/s, 149° | - | - |
| 1777819164 | 27.78° C | 21% | 985.7 hPa | 0 mm | 3.13 m/s, 126° | - | - |
| 1777818563 | 27.78° C | 22% | 985.9 hPa | 0 mm | 4.02 m/s, 230° | - | - |
| 1777817963 | 27.78° C | 23% | 986.1 hPa | 0 mm | 4.92 m/s, 121° | - | - |
| 1777817362 | 27.22° C | 22% | 986.1 hPa | 0 mm | 1.79 m/s, 101° | - | - |
| 1777816761 | 27.78° C | 22% | 986.3 hPa | 0 mm | 1.79 m/s, 147° | - | - |
| 1777816160 | 27.78° C | 22% | 986.3 hPa | 0 mm | 3.58 m/s, 130° | - | - |
| 1777815559 | 27.78° C | 23% | 986.4 hPa | 0 mm | 7.15 m/s, 148° | - | - |
| 1777814958 | 27.78° C | 23% | 986.6 hPa | 0 mm | 4.92 m/s, 201° | - | - |
| 1777814357 | 27.22° C | 23% | 986.7 hPa | 0 mm | 1.34 m/s, 141° | - | - |
| 1777813756 | 27.22° C | 24% | 986.8 hPa | 0 mm | 1.34 m/s, 78° | - | - |
| 1777813156 | 27.22° C | 24% | 986.9 hPa | 0 mm | 4.02 m/s, 12° | - | - |
| 1777812555 | 27.22° C | 25% | 987 hPa | 0 mm | 4.92 m/s, 76° | - | - |
* Rain since midnight (hover to see other rain measurements)
** Current wind speed in m/s (hover to see current wind gust speed)